Regional Weather Roundup
Issued by NWS

Home | Current Version | Previous Version | Text Only | Print | Product List | Glossary Off
Versions: 1 2 3 4 5 6 7 8 9 10 11 12 13 14 15 16 17 18 19 20 21 22 23 24 25 26 27 28 29 30 31 32 33 34 35 36 37 38 39 40 41 42 43 44 45 46 47 48 49 50

443
ASUS45 KBOU 060307
RWRCO

WEATHER ROUNDUP FOR COLORADO
NATIONAL WEATHER SERVICE DENVER/BOULDER CO
800 PM MST FRI FEB 05 2016

NOTE: "FAIR" INDICATES FEW OR NO CLOUDS BELOW 12000 FEET WITH NO
SIGNIFICANT WEATHER AND/OR OBSTRUCTIONS TO VISIBILITY.

COZ001>005-013-030-031-060400-
...NORTHWEST COLORADO...

CITY           SKY/WX    TMP DP  RH WIND       PRES   REMARKS
CRAIG          CLOUDY    -1  -5  82 CALM      30.47R
HAYDEN         CLOUDY    12   5  73 SE7       30.45S WCI   2
MEEKER         CLOUDY     7   2  80 VRB3      30.46S
MOUNT WERNER   NOT AVBL
STEAMBOAT SPGS CLOUDY     9   6  87 CALM      30.45R
WALDEN         CLOUDY     9   1  72 SE10      30.37S WCI  -6
$$

COZ006>008-011-060400-
...WEST CENTRAL VALLEYS...

CITY           SKY/WX    TMP DP  RH WIND       PRES   REMARKS
GRAND JUNCTION CLOUDY    11   8  88 E3        30.56R
MONTROSE       CLOUDY    13   7  77 SE10      30.53S WCI   0
EAGLE          CLEAR     12   9  85 CALM      30.50R
RIFLE          CLOUDY    13   6  74 E5        30.53R WCI   5
DELTA          CLOUDY    20  14  79 NE3       30.55R
NUCLA          CLOUDY    21  14  73 SE8       30.52S WCI  12
$$

COZ017>023-064>068-060400-
...SOUTHWEST COLORADO...

CITY           SKY/WX    TMP DP  RH WIND       PRES   REMARKS
DURANGO        CLOUDY    14   7  73 CALM      30.40R
CORTEZ         CLOUDY    17   9  70 E3        30.46R
PAGOSA SPRINGS CLOUDY    14   9  82 NE6       30.39S WCI   5
TELLURIDE      CLOUDY    14   4  65 SE3       30.42R
WOLF CREEK PAS CLOUDY     9  -9  43 NW12      30.34R WCI  -6
$$

COZ009-010-012-014-032>034-037-058>063-060400-
...CENTRAL COLORADO...

CITY           SKY/WX    TMP DP  RH WIND       PRES   REMARKS
ASPEN          CLOUDY     9   2  73 SW7       30.44R WCI  -2
BUENA VISTA    CLOUDY    19   4  52 NW22G28   30.31S WCI   3
COPPER MTN     CLOUDY     5  -2  72 W10       30.28S WCI -10
BERTHOUD PASS  CLOUDY    -4 -13  65 N14G26    30.24R WCI -24
COTTONWOOD PAS CLOUDY    19  -4  35 W17G29    30.28R WCI   4
GUNNISON       CLOUDY    -9 -20  59 N3        30.47R
KREMMLING      CLOUDY    -4  -8  84 CALM      30.47R
LEADVILLE      CLOUDY     3  -1  83 N12       30.32R WCI -13
MONARCH PASS   CLOUDY     3  -2  78 MISG      30.37S
SALIDA         NOT AVBL
SUNLIGHT       CLOUDY   N/A N/A N/A NW3         N/A
WILKERSON PASS CLOUDY    12  -6  44 N10G23    30.24S WCI  -1
$$

COZ069>075-060400-
...SAN LUIS VALLEY/SANGRE DE CRISTO MOUNTAINS...

CITY           SKY/WX    TMP DP  RH WIND       PRES   REMARKS
ALAMOSA        CLOUDY     8   2  76 S3        30.35R
LA VETA PASS   CLOUDY    10   1  67 MISG      30.23S
SAGUACHE       CLOUDY    19   5  53 N16G24    30.36R WCI   5
$$

COZ035-036-038>040-060400-
...NORTHERN COLORADO FRONT RANGE...

CITY           SKY/WX    TMP DP  RH WIND       PRES   REMARKS
DENVER INTL AP CLOUDY    15   5  64 S16       30.27F WCI  -1
DMNS CITY PARK   N/A     26  11  52 E9        30.27S WCI  16
AURORA         CLEAR     18   7  62 S9        30.27F WCI   6
FRONT RANGE AP PTCLDY    14   7  73 S12       30.28S WCI   0
ERIE MUNI ARPT CLOUDY    23  12  63 SW3       30.27S
BOULDER MUN AP CLOUDY    27  14  59 CALM      30.27R
CENTENNIAL     CLOUDY    18   7  62 S6        30.26S WCI  10
BROOMFIELD     CLEAR     27  10  50 CALM      30.27S
FORT COLLINS   CLOUDY    23  10  58 CALM      30.29S
LONGMONT       CLOUDY    18  10  71 NW5       30.30S WCI  11
$$

COZ041-046-047-076>085-087-088-060400-
...PIKES PEAK/PALMER DIVIDE AND SOUTHERN FOOTHILLS...

CITY           SKY/WX    TMP DP  RH WIND       PRES   REMARKS
COLO. SPRINGS  CLOUDY    14   3  61 N3        30.30S
A. F. ACADEMY  CLOUDY     9   2  72 N6        30.27S WCI  -1
SCHRIEVER AFB  FAIR      15   6  66 NW2       30.30R
ELLICOTT       NOT AVBL
FALCON         CLOUDY    14   4  64 W10       30.28S WCI   1
FORT CARSON    CLOUDY    30  14  51 SE6       30.25S WCI  24
LIMON          CLOUDY    11   4  73 N6        30.30R WCI   1
MONUMENT HILL  CLOUDY    16   5  62 SW13      30.27R WCI   2
TRINIDAD       CLEAR     19  12  74 W5        30.31S WCI  12
$$

COZ042>045-048>051-090-091-060400-
...NORTHEAST COLORADO...

CITY           SKY/WX    TMP DP  RH WIND       PRES   REMARKS
GREELEY ARPT   CLOUDY    16  10  79 CALM      30.30S
AKRON          CLOUDY    19  11  70 N14       30.27S WCI   6
BURLINGTON     CLEAR     20  11  68 NW12      30.28S WCI   8
WRAY           CLEAR     23  15  71 MISG      30.29S
STERLING       CLOUDY    21  14  73 NW13      30.28S WCI   9
HOLYOKE        CLEAR     28  18  64 NW14      30.28S WCI  17
FORT MORGAN    CLOUDY    23  12  62 W8        30.30R WCI  14
$$

COZ086-089-092>099-060400-
...SOUTHEAST COLORADO...

CITY           SKY/WX    TMP DP  RH WIND       PRES   REMARKS
PUEBLO         CLOUDY    20  13  74 N3        30.33R
LA JUNTA       CLEAR     25  15  66 W9        30.33S WCI  15
LAMAR          CLEAR     23  17  78 W5        30.31S WCI  17
SPRINGFIELD      N/A     20  16  84 W10       30.31R WCI   9
$$




USA.gov is the U.S. government's official web portal to all federal, state and local government web resources and services.